Location: Newark
(22.3060°N, 114.2134°E)
Time: 20:33:17
(UTC+00:00)

Vanguard 2 - Pass Details

Date: 07 August 2021
Orbit: 553 x 2937 km, 32.9° (Epoch: 27 September)

Event Time Altitude Azimuth Distance (km) Brightness Sun altitude
Rises 20:04:33 0° 288° (WNW) 2,902 - -24.7°
Reaches altitude 10° 20:07:29 10° 306° (NW) 1,865 - -24.1°
Exits shadow 20:09:17 17° 331° (NNW) 1,419 8.9 -23.7°
Maximum altitude 20:10:28 19° 355° (N) 1,319 9.0 -23.5°
Drops below altitude 10° 20:13:28 10° 44° (NE) 1,861 10.5 -22.9°
Sets 20:16:23 0° 62° (ENE) 2,894 12.0 -22.3°
